Time,TemperatureF,DewpointF,PressureIn,WindDirection,WindDirectionDegrees,WindSpeedMPH,WindSpeedGustMPH,Humidity,HourlyPrecipIn,Conditions,Clouds,dailyrainin,SoftwareType,DateUTC
2013-03-22 00:00:00,24.2,16.0,29.38,ESE,112,2.0,4.0,73,0.00,,,0.11,Rainwise IP-100,2013-03-22 04:00:00,
2013-03-22 00:01:00,24.2,16.0,29.38,ESE,112,1.0,4.0,71,0.00,,,0.00,Rainwise IP-100,2013-03-22 04:01:00,
2013-03-22 00:06:00,24.2,16.0,29.38,East,90,2.0,4.0,69,0.00,,,0.00,Rainwise IP-100,2013-03-22 04:06:00,
2013-03-22 00:12:00,24.1,16.0,29.38,East,90,2.0,4.0,73,0.00,,,0.00,Rainwise IP-100,2013-03-22 04:12:00,
2013-03-22 00:16:00,23.9,16.0,29.38,SSE,157,2.0,4.0,71,0.00,,,0.00,Rainwise IP-100,2013-03-22 04:16:00,
2013-03-22 00:22:00,23.7,16.0,29.38,SSE,157,0.0,3.0,73,0.00,,,0.00,Rainwise IP-100,2013-03-22 04:22:00,
2013-03-22 00:27:00,23.3,16.0,29.38,SSE,157,0.0,1.0,76,0.00,,,0.00,Rainwise IP-100,2013-03-22 04:27:00,
2013-03-22 00:32:00,23.1,16.0,29.38,SE,135,0.0,6.0,76,0.00,,,0.00,Rainwise IP-100,2013-03-22 04:32:00,
2013-03-22 00:37:00,22.9,16.0,29.38,SE,135,0.0,1.0,77,0.00,,,0.00,Rainwise IP-100,2013-03-22 04:37:00,
2013-03-22 00:42:00,22.6,16.0,29.38,SE,135,0.0,0.0,76,0.00,,,0.00,Rainwise IP-100,2013-03-22 04:42:00,
2013-03-22 00:47:00,22.4,16.0,29.38,SE,135,0.0,1.0,77,0.00,,,0.00,Rainwise IP-100,2013-03-22 04:47:00,
2013-03-22 00:52:00,22.5,18.0,29.38,SE,135,0.0,2.0,84,0.00,,,0.00,Rainwise IP-100,2013-03-22 04:52:00,
2013-03-22 00:58:00,22.1,18.0,29.38,SE,135,0.0,1.0,82,0.00,,,0.00,Rainwise IP-100,2013-03-22 04:58:00,
2013-03-22 01:03:00,21.6,16.0,29.38,SE,135,0.0,0.0,79,0.00,,,0.00,Rainwise IP-100,2013-03-22 05:03:00,
2013-03-22 01:08:00,21.4,16.0,29.38,SE,135,0.0,1.0,79,0.00,,,0.00,Rainwise IP-100,2013-03-22 05:08:00,
2013-03-22 01:13:00,21.4,16.0,29.38,SE,135,0.0,1.0,81,0.00,,,0.00,Rainwise IP-100,2013-03-22 05:13:00,
2013-03-22 01:18:00,21.5,18.0,29.38,SE,135,0.0,3.0,81,0.00,,,0.00,Rainwise IP-100,2013-03-22 05:18:00,
2013-03-22 01:23:00,21.5,18.0,29.38,SE,135,0.0,0.0,80,0.00,,,0.00,Rainwise IP-100,2013-03-22 05:23:00,
2013-03-22 01:28:00,21.4,16.0,29.39,SE,135,0.0,1.0,83,0.00,,,0.00,Rainwise IP-100,2013-03-22 05:28:00,
2013-03-22 01:33:00,21.1,16.0,29.38,SE,135,0.0,1.0,81,0.00,,,0.00,Rainwise IP-100,2013-03-22 05:33:00,
2013-03-22 01:39:00,20.9,16.0,29.38,SE,135,0.0,1.0,85,0.00,,,0.00,Rainwise IP-100,2013-03-22 05:39:00,
2013-03-22 01:44:00,20.7,16.0,29.39,SE,135,0.0,1.0,85,0.00,,,0.00,Rainwise IP-100,2013-03-22 05:44:00,
2013-03-22 01:49:00,20.5,16.0,29.38,SE,135,0.0,0.0,83,0.00,,,0.00,Rainwise IP-100,2013-03-22 05:49:00,
2013-03-22 01:54:00,20.5,16.0,29.38,SE,135,0.0,1.0,83,0.00,,,0.00,Rainwise IP-100,2013-03-22 05:54:00,
2013-03-22 01:59:00,20.6,16.0,29.38,SE,135,0.0,1.0,86,0.00,,,0.00,Rainwise IP-100,2013-03-22 05:59:00,
2013-03-22 02:04:00,20.4,18.0,29.38,SE,135,0.0,2.0,89,0.00,,,0.00,Rainwise IP-100,2013-03-22 06:04:00,
2013-03-22 02:09:00,20.2,18.0,29.38,SE,135,0.0,1.0,91,0.00,,,0.00,Rainwise IP-100,2013-03-22 06:09:00,
2013-03-22 02:15:00,19.8,18.0,29.38,SE,135,0.0,1.0,88,0.00,,,0.00,Rainwise IP-100,2013-03-22 06:15:00,
2013-03-22 02:20:00,19.3,18.0,29.38,SE,135,0.0,0.0,88,0.00,,,0.00,Rainwise IP-100,2013-03-22 06:20:00,
2013-03-22 02:25:00,18.9,18.0,29.38,SE,135,0.0,1.0,92,0.00,,,0.00,Rainwise IP-100,2013-03-22 06:25:00,
2013-03-22 02:30:00,18.5,18.0,29.38,SE,135,0.0,1.0,92,0.00,,,0.00,Rainwise IP-100,2013-03-22 06:30:00,
2013-03-22 02:35:00,18.2,16.0,29.38,SE,135,0.0,0.0,91,0.00,,,0.00,Rainwise IP-100,2013-03-22 06:35:00,
2013-03-22 02:40:00,17.8,16.0,29.38,SE,135,0.0,0.0,92,0.00,,,0.00,Rainwise IP-100,2013-03-22 06:40:00,
2013-03-22 02:45:00,17.9,16.0,29.38,SE,135,1.0,2.0,94,0.00,,,0.00,Rainwise IP-100,2013-03-22 06:45:00,
2013-03-22 02:50:00,18.0,18.0,29.38,SE,135,1.0,2.0,98,0.00,,,0.00,Rainwise IP-100,2013-03-22 06:50:00,
2013-03-22 02:56:00,18.2,18.0,29.37,SE,135,0.0,2.0,97,0.00,,,0.00,Rainwise IP-100,2013-03-22 06:56:00,
2013-03-22 03:01:00,17.9,16.0,29.37,SE,135,0.0,1.0,94,0.00,,,0.00,Rainwise IP-100,2013-03-22 07:01:00,
2013-03-22 03:06:00,17.8,16.0,29.37,SE,135,0.0,0.0,92,0.00,,,0.00,Rainwise IP-100,2013-03-22 07:06:00,
2013-03-22 03:11:00,17.6,18.0,29.37,SE,135,0.0,1.0,96,0.00,,,0.00,Rainwise IP-100,2013-03-22 07:11:00,
2013-03-22 03:16:00,17.4,18.0,29.37,SE,135,0.0,1.0,99,0.00,,,0.00,Rainwise IP-100,2013-03-22 07:16:00,
2013-03-22 03:21:00,17.1,18.0,29.37,SE,135,0.0,1.0,98,0.00,,,0.00,Rainwise IP-100,2013-03-22 07:21:00,
2013-03-22 03:27:00,17.0,18.0,29.37,SE,135,0.0,1.0,98,0.00,,,0.00,Rainwise IP-100,2013-03-22 07:27:00,
2013-03-22 03:32:00,17.0,18.0,29.37,SE,135,0.0,1.0,99,0.00,,,0.00,Rainwise IP-100,2013-03-22 07:32:00,
2013-03-22 03:37:00,16.9,18.0,29.37,SE,135,0.0,2.0,100,0.00,,,0.00,Rainwise IP-100,2013-03-22 07:37:00,
2013-03-22 03:42:00,17.0,18.0,29.37,SE,135,0.0,2.0,100,0.00,,,0.00,Rainwise IP-100,2013-03-22 07:42:00,
2013-03-22 03:47:00,16.9,18.0,29.37,SE,135,0.0,0.0,98,0.00,,,0.00,Rainwise IP-100,2013-03-22 07:47:00,
2013-03-22 03:52:00,16.8,18.0,29.36,SE,135,0.0,0.0,97,0.00,,,0.00,Rainwise IP-100,2013-03-22 07:52:00,
2013-03-22 03:57:00,16.6,18.0,29.36,SE,135,0.0,1.0,98,0.00,,,0.00,Rainwise IP-100,2013-03-22 07:57:00,
2013-03-22 04:03:00,16.6,18.0,29.36,SE,135,2.0,2.0,99,0.00,,,0.00,Rainwise IP-100,2013-03-22 08:03:00,
2013-03-22 04:08:00,16.8,18.0,29.36,SE,135,1.0,2.0,100,0.00,,,0.00,Rainwise IP-100,2013-03-22 08:08:00,
2013-03-22 04:13:00,16.7,18.0,29.36,SE,135,0.0,1.0,100,0.00,,,0.00,Rainwise IP-100,2013-03-22 08:13:00,
2013-03-22 04:18:00,16.4,16.0,29.36,SE,135,0.0,1.0,100,0.00,,,0.00,Rainwise IP-100,2013-03-22 08:18:00,
2013-03-22 04:23:00,16.1,16.0,29.36,SE,135,0.0,1.0,100,0.00,,,0.00,Rainwise IP-100,2013-03-22 08:23:00,
2013-03-22 04:28:00,16.3,16.0,29.37,SE,135,2.0,2.0,100,0.00,,,0.00,Rainwise IP-100,2013-03-22 08:28:00,
2013-03-22 04:33:00,16.4,16.0,29.36,SE,135,0.0,2.0,100,0.00,,,0.00,Rainwise IP-100,2013-03-22 08:33:00,
2013-03-22 04:38:00,16.3,16.0,29.36,SE,135,0.0,0.0,100,0.00,,,0.00,Rainwise IP-100,2013-03-22 08:38:00,
2013-03-22 04:43:00,16.3,16.0,29.37,SE,135,0.0,0.0,100,0.00,,,0.00,Rainwise IP-100,2013-03-22 08:43:00,
2013-03-22 04:49:00,16.3,16.0,29.37,SE,135,0.0,0.0,100,0.00,,,0.00,Rainwise IP-100,2013-03-22 08:49:00,
2013-03-22 04:54:00,16.3,16.0,29.37,SE,135,0.0,0.0,100,0.00,,,0.00,Rainwise IP-100,2013-03-22 08:54:00,
2013-03-22 04:59:00,16.5,18.0,29.36,SE,135,0.0,1.0,100,0.00,,,0.00,Rainwise IP-100,2013-03-22 08:59:00,
2013-03-22 05:04:00,16.7,18.0,29.36,SE,135,0.0,1.0,100,0.00,,,0.00,Rainwise IP-100,2013-03-22 09:04:00,
2013-03-22 05:09:00,16.6,18.0,29.36,SE,135,0.0,1.0,100,0.00,,,0.00,Rainwise IP-100,2013-03-22 09:09:00,
2013-03-22 05:14:00,16.6,18.0,29.36,SE,135,1.0,3.0,100,0.00,,,0.00,Rainwise IP-100,2013-03-22 09:14:00,
2013-03-22 05:19:00,17.3,18.0,29.36,SE,135,2.0,3.0,100,0.00,,,0.00,Rainwise IP-100,2013-03-22 09:19:00,
2013-03-22 05:25:00,17.6,18.0,29.37,SE,135,0.0,3.0,100,0.00,,,0.00,Rainwise IP-100,2013-03-22 09:25:00,
2013-03-22 05:30:00,17.4,18.0,29.37,SE,135,0.0,0.0,100,0.00,,,0.00,Rainwise IP-100,2013-03-22 09:30:00,
2013-03-22 05:35:00,17.3,18.0,29.37,SE,135,0.0,0.0,100,0.00,,,0.00,Rainwise IP-100,2013-03-22 09:35:00,
2013-03-22 05:40:00,18.2,18.0,29.37,SE,135,2.0,3.0,100,0.00,,,0.00,Rainwise IP-100,2013-03-22 09:40:00,
2013-03-22 05:45:00,18.7,21.0,29.37,SE,135,0.0,2.0,99,0.00,,,0.00,Rainwise IP-100,2013-03-22 09:45:00,
2013-03-22 05:50:00,18.7,21.0,29.37,SE,135,0.0,1.0,99,0.00,,,0.00,Rainwise IP-100,2013-03-22 09:50:00,
2013-03-22 05:55:00,18.9,21.0,29.37,SE,135,0.0,2.0,100,0.00,,,0.00,Rainwise IP-100,2013-03-22 09:55:00,
2013-03-22 06:00:00,18.9,21.0,29.37,SE,135,0.0,0.0,98,0.00,,,0.00,Rainwise IP-100,2013-03-22 10:00:00,
2013-03-22 06:06:00,18.7,21.0,29.37,SE,135,0.0,1.0,99,0.00,,,0.00,Rainwise IP-100,2013-03-22 10:06:00,
2013-03-22 06:11:00,18.6,21.0,29.37,SE,135,0.0,0.0,99,0.00,,,0.00,Rainwise IP-100,2013-03-22 10:11:00,
2013-03-22 06:16:00,18.7,21.0,29.37,SE,135,2.0,2.0,100,0.00,,,0.00,Rainwise IP-100,2013-03-22 10:16:00,
2013-03-22 06:21:00,18.9,21.0,29.37,SE,135,1.0,2.0,100,0.00,,,0.00,Rainwise IP-100,2013-03-22 10:21:00,
2013-03-22 06:26:00,18.9,21.0,29.37,SE,135,0.0,3.0,99,0.00,,,0.00,Rainwise IP-100,2013-03-22 10:26:00,
2013-03-22 06:31:00,18.9,21.0,29.37,SE,135,0.0,2.0,99,0.00,,,0.00,Rainwise IP-100,2013-03-22 10:31:00,
2013-03-22 06:37:00,18.5,21.0,29.37,SE,135,0.0,0.0,97,0.00,,,0.00,Rainwise IP-100,2013-03-22 10:37:00,
2013-03-22 06:42:00,17.9,18.0,29.37,SE,135,0.0,0.0,98,0.00,,,0.00,Rainwise IP-100,2013-03-22 10:42:00,
2013-03-22 06:47:00,17.7,18.0,29.37,SE,135,0.0,0.0,99,0.00,,,0.00,Rainwise IP-100,2013-03-22 10:47:00,
2013-03-22 06:52:00,17.4,18.0,29.37,SE,135,0.0,0.0,100,0.00,,,0.00,Rainwise IP-100,2013-03-22 10:52:00,
2013-03-22 06:57:00,16.9,18.0,29.37,SE,135,0.0,0.0,100,0.00,,,0.00,Rainwise IP-100,2013-03-22 10:57:00,
2013-03-22 07:02:00,16.7,18.0,29.37,SE,135,0.0,0.0,100,0.00,,,0.00,Rainwise IP-100,2013-03-22 11:02:00,
2013-03-22 07:07:00,16.4,16.0,29.37,SE,135,0.0,0.0,100,0.00,,,0.00,Rainwise IP-100,2013-03-22 11:07:00,
2013-03-22 07:13:00,16.3,16.0,29.37,SE,135,0.0,0.0,100,0.00,,,0.00,Rainwise IP-100,2013-03-22 11:13:00,
2013-03-22 07:18:00,16.2,16.0,29.37,SE,135,0.0,0.0,100,0.00,,,0.00,Rainwise IP-100,2013-03-22 11:18:00,
2013-03-22 07:23:00,15.9,16.0,29.38,SE,135,0.0,0.0,100,0.00,,,0.00,Rainwise IP-100,2013-03-22 11:23:00,
2013-03-22 07:28:00,15.8,16.0,29.38,SE,135,0.0,1.0,100,0.00,,,0.00,Rainwise IP-100,2013-03-22 11:28:00,
2013-03-22 07:33:00,15.7,16.0,29.39,SE,135,0.0,0.0,100,0.00,,,0.00,Rainwise IP-100,2013-03-22 11:33:00,
2013-03-22 07:38:00,15.7,16.0,29.39,SE,135,0.0,0.0,100,0.00,,,0.00,Rainwise IP-100,2013-03-22 11:38:00,
2013-03-22 07:43:00,15.9,16.0,29.39,SE,135,0.0,2.0,100,0.00,,,0.00,Rainwise IP-100,2013-03-22 11:43:00,
2013-03-22 07:48:00,16.6,18.0,29.39,SE,135,2.0,2.0,100,0.00,,,0.00,Rainwise IP-100,2013-03-22 11:48:00,
2013-03-22 07:54:00,17.1,18.0,29.38,SE,135,0.0,2.0,100,0.00,,,0.00,Rainwise IP-100,2013-03-22 11:54:00,
2013-03-22 07:59:00,17.1,18.0,29.39,SE,135,0.0,0.0,100,0.00,,,0.00,Rainwise IP-100,2013-03-22 11:59:00,
2013-03-22 08:04:00,17.2,18.0,29.39,SE,135,2.0,2.0,100,0.00,,,0.00,Rainwise IP-100,2013-03-22 12:04:00,
2013-03-22 08:09:00,18.0,18.0,29.39,SSE,157,2.0,3.0,100,0.00,,,0.00,Rainwise IP-100,2013-03-22 12:09:00,
2013-03-22 08:14:00,18.7,21.0,29.39,SSE,157,2.0,3.0,100,0.00,,,0.00,Rainwise IP-100,2013-03-22 12:14:00,
2013-03-22 08:19:00,19.2,21.0,29.39,SSE,157,2.0,3.0,99,0.00,,,0.00,Rainwise IP-100,2013-03-22 12:19:00,
2013-03-22 08:24:00,19.7,21.0,29.39,SSE,157,2.0,4.0,97,0.00,,,0.00,Rainwise IP-100,2013-03-22 12:24:00,
2013-03-22 08:30:00,20.5,18.0,29.39,SSE,157,1.0,6.0,93,0.00,,,0.00,Rainwise IP-100,2013-03-22 12:30:00,
2013-03-22 08:35:00,20.8,18.0,29.39,South,180,0.0,5.0,94,0.00,,,0.00,Rainwise IP-100,2013-03-22 12:35:00,
2013-03-22 08:40:00,21.2,18.0,29.39,South,180,0.0,3.0,95,0.00,,,0.00,Rainwise IP-100,2013-03-22 12:40:00,
2013-03-22 08:45:00,21.6,21.0,29.38,South,180,1.0,5.0,91,0.00,,,0.00,Rainwise IP-100,2013-03-22 12:45:00,
2013-03-22 08:50:00,22.1,21.0,29.38,ESE,112,3.0,4.0,90,0.00,,,0.00,Rainwise IP-100,2013-03-22 12:50:00,
2013-03-22 08:55:00,22.5,21.0,29.38,SSE,157,4.0,4.0,89,0.00,,,0.00,Rainwise IP-100,2013-03-22 12:55:00,
2013-03-22 09:00:00,22.6,18.0,29.38,South,180,2.0,5.0,87,0.00,,,0.00,Rainwise IP-100,2013-03-22 13:00:00,
2013-03-22 09:05:00,22.9,18.0,29.38,South,180,3.0,6.0,86,0.00,,,0.00,Rainwise IP-100,2013-03-22 13:05:00,
2013-03-22 09:11:00,23.3,18.0,29.38,SSE,157,3.0,6.0,84,0.00,,,0.00,Rainwise IP-100,2013-03-22 13:11:00,
2013-03-22 09:16:00,23.8,21.0,29.38,South,180,7.0,7.0,83,0.00,,,0.00,Rainwise IP-100,2013-03-22 13:16:00,
2013-03-22 09:21:00,24.3,21.0,29.39,ESE,112,1.0,5.0,84,0.00,,,0.00,Rainwise IP-100,2013-03-22 13:21:00,
2013-03-22 09:26:00,24.7,21.0,29.39,SE,135,1.0,4.0,81,0.00,,,0.00,Rainwise IP-100,2013-03-22 13:26:00,
2013-03-22 09:31:00,24.8,21.0,29.40,SSE,157,1.0,7.0,79,0.00,,,0.00,Rainwise IP-100,2013-03-22 13:31:00,
2013-03-22 09:36:00,25.1,21.0,29.40,SE,135,3.0,4.0,81,0.00,,,0.00,Rainwise IP-100,2013-03-22 13:36:00,
2013-03-22 09:42:00,25.5,21.0,29.40,South,180,2.0,6.0,79,0.00,,,0.00,Rainwise IP-100,2013-03-22 13:42:00,
2013-03-22 09:47:00,25.9,21.0,29.40,WSW,247,1.0,6.0,79,0.00,,,0.00,Rainwise IP-100,2013-03-22 13:47:00,
2013-03-22 09:52:00,26.3,21.0,29.40,East,90,1.0,5.0,79,0.00,,,0.00,Rainwise IP-100,2013-03-22 13:52:00,
2013-03-22 09:57:00,26.7,23.0,29.39,SSE,157,3.0,5.0,78,0.00,,,0.00,Rainwise IP-100,2013-03-22 13:57:00,
2013-03-22 10:02:00,26.9,21.0,29.39,South,180,1.0,6.0,74,0.00,,,0.00,Rainwise IP-100,2013-03-22 14:02:00,
2013-03-22 10:07:00,27.2,21.0,29.39,ESE,112,3.0,8.0,75,0.00,,,0.00,Rainwise IP-100,2013-03-22 14:07:00,
2013-03-22 10:12:00,27.6,21.0,29.39,ESE,112,1.0,6.0,75,0.00,,,0.00,Rainwise IP-100,2013-03-22 14:12:00,
2013-03-22 10:18:00,28.0,21.0,29.39,SSE,157,3.0,5.0,73,0.00,,,0.00,Rainwise IP-100,2013-03-22 14:18:00,
2013-03-22 10:23:00,28.4,21.0,29.39,ENE,67,1.0,6.0,73,0.00,,,0.00,Rainwise IP-100,2013-03-22 14:23:00,
2013-03-22 10:28:00,28.8,23.0,29.39,ESE,112,2.0,5.0,75,0.00,,,0.00,Rainwise IP-100,2013-03-22 14:28:00,
2013-03-22 10:33:00,29.0,23.0,29.38,SSE,157,2.0,4.0,76,0.00,,,0.00,Rainwise IP-100,2013-03-22 14:33:00,
2013-03-22 10:38:00,29.9,23.0,29.39,SE,135,3.0,6.0,72,0.00,,,0.00,Rainwise IP-100,2013-03-22 14:38:00,
2013-03-22 10:43:00,31.0,23.0,29.38,South,180,3.0,7.0,68,0.00,,,0.00,Rainwise IP-100,2013-03-22 14:43:00,
2013-03-22 10:48:00,31.3,23.0,29.38,ESE,112,1.0,6.0,68,0.00,,,0.00,Rainwise IP-100,2013-03-22 14:48:00,
2013-03-22 10:54:00,31.5,23.0,29.39,East,90,2.0,6.0,69,0.00,,,0.00,Rainwise IP-100,2013-03-22 14:54:00,
2013-03-22 10:59:00,32.0,23.0,29.39,ESE,112,1.0,6.0,68,0.00,,,0.00,Rainwise IP-100,2013-03-22 14:59:00,
2013-03-22 11:04:00,32.9,24.0,29.39,ESE,112,0.0,3.0,67,0.00,,,0.00,Rainwise IP-100,2013-03-22 15:04:00,
2013-03-22 11:09:00,33.5,24.0,29.39,South,180,5.0,5.0,66,0.00,,,0.00,Rainwise IP-100,2013-03-22 15:09:00,
2013-03-22 11:14:00,33.7,24.0,29.39,SSE,157,4.0,6.0,64,0.00,,,0.00,Rainwise IP-100,2013-03-22 15:14:00,
2013-03-22 11:19:00,33.7,24.0,29.39,East,90,0.0,6.0,67,0.00,,,0.00,Rainwise IP-100,2013-03-22 15:19:00,
2013-03-22 11:24:00,33.9,24.0,29.39,East,90,0.0,5.0,64,0.00,,,0.00,Rainwise IP-100,2013-03-22 15:24:00,
2013-03-22 11:29:00,34.0,24.0,29.39,East,90,6.0,6.0,66,0.00,,,0.00,Rainwise IP-100,2013-03-22 15:29:00,
2013-03-22 11:35:00,34.1,24.0,29.39,SE,135,3.0,6.0,63,0.00,,,0.00,Rainwise IP-100,2013-03-22 15:35:00,
2013-03-22 11:40:00,34.0,23.0,29.39,North,360,4.0,7.0,61,0.00,,,0.00,Rainwise IP-100,2013-03-22 15:40:00,
2013-03-22 11:45:00,33.9,23.0,29.39,East,90,0.0,6.0,60,0.00,,,0.00,Rainwise IP-100,2013-03-22 15:45:00,
2013-03-22 11:50:00,34.5,23.0,29.39,East,90,4.0,8.0,61,0.00,,,0.00,Rainwise IP-100,2013-03-22 15:50:00,
2013-03-22 11:55:00,35.2,23.0,29.39,ENE,67,2.0,6.0,60,0.00,,,0.00,Rainwise IP-100,2013-03-22 15:55:00,
2013-03-22 12:00:00,35.7,24.0,29.39,NNW,337,5.0,6.0,61,0.00,,,0.00,Rainwise IP-100,2013-03-22 16:00:00,
2013-03-22 12:05:00,36.2,24.0,29.39,East,90,1.0,9.0,61,0.00,,,0.00,Rainwise IP-100,2013-03-22 16:05:00,
2013-03-22 12:11:00,36.6,26.0,29.39,ENE,67,4.0,6.0,63,0.00,,,0.00,Rainwise IP-100,2013-03-22 16:11:00,
2013-03-22 12:16:00,36.8,24.0,29.39,SSE,157,4.0,4.0,61,0.00,,,0.00,Rainwise IP-100,2013-03-22 16:16:00,
2013-03-22 12:21:00,37.8,26.0,29.39,ESE,112,1.0,6.0,59,0.00,,,0.00,Rainwise IP-100,2013-03-22 16:21:00,
2013-03-22 12:26:00,37.9,24.0,29.39,SE,135,2.0,6.0,57,0.06,,,0.01,Rainwise IP-100,2013-03-22 16:26:00,
2013-03-22 12:31:00,38.2,26.0,29.39,SSE,157,4.0,6.0,63,0.06,,,0.01,Rainwise IP-100,2013-03-22 16:31:00,
2013-03-22 12:37:00,39.1,26.0,29.40,SW,225,2.0,6.0,60,0.00,,,0.01,Rainwise IP-100,2013-03-22 16:37:00,
2013-03-22 12:42:00,38.3,24.0,29.40,SE,135,4.0,6.0,58,0.00,,,0.01,Rainwise IP-100,2013-03-22 16:42:00,
2013-03-22 12:47:00,37.9,28.0,29.40,SW,225,1.0,7.0,64,0.00,,,0.01,Rainwise IP-100,2013-03-22 16:47:00,
2013-03-22 12:52:00,39.2,26.0,29.40,SSE,157,0.0,4.0,60,0.00,,,0.01,Rainwise IP-100,2013-03-22 16:52:00,
2013-03-22 12:57:00,40.2,28.0,29.40,North,360,1.0,5.0,58,0.00,,,0.01,Rainwise IP-100,2013-03-22 16:57:00,
2013-03-22 13:02:00,39.3,26.0,29.40,North,360,7.0,7.0,57,0.00,,,0.01,Rainwise IP-100,2013-03-22 17:02:00,
2013-03-22 13:07:00,37.8,24.0,29.40,NNW,337,6.0,9.0,58,0.00,,,0.01,Rainwise IP-100,2013-03-22 17:07:00,
2013-03-22 13:12:00,37.6,26.0,29.40,ENE,67,3.0,8.0,62,0.00,,,0.01,Rainwise IP-100,2013-03-22 17:12:00,
2013-03-22 13:18:00,37.5,26.0,29.40,East,90,0.0,5.0,62,0.00,,,0.01,Rainwise IP-100,2013-03-22 17:18:00,
2013-03-22 13:23:00,37.3,24.0,29.40,North,360,7.0,7.0,59,0.00,,,0.01,Rainwise IP-100,2013-03-22 17:23:00,
2013-03-22 13:28:00,36.5,26.0,29.40,NE,45,5.0,8.0,64,0.00,,,0.01,Rainwise IP-100,2013-03-22 17:28:00,
2013-03-22 13:33:00,35.2,24.0,29.40,North,360,4.0,9.0,65,0.00,,,0.01,Rainwise IP-100,2013-03-22 17:33:00,
2013-03-22 13:38:00,35.5,26.0,29.40,NNW,337,4.0,7.0,65,0.00,,,0.01,Rainwise IP-100,2013-03-22 17:38:00,
2013-03-22 13:43:00,34.9,24.0,29.40,NNW,337,4.0,6.0,65,0.00,,,0.01,Rainwise IP-100,2013-03-22 17:43:00,
2013-03-22 13:48:00,35.1,24.0,29.40,North,360,7.0,7.0,66,0.00,,,0.01,Rainwise IP-100,2013-03-22 17:48:00,
2013-03-22 13:54:00,34.7,24.0,29.39,NW,315,8.0,8.0,67,0.00,,,0.01,Rainwise IP-100,2013-03-22 17:54:00,
2013-03-22 13:59:00,35.3,24.0,29.39,NNW,337,1.0,9.0,67,0.00,,,0.01,Rainwise IP-100,2013-03-22 17:59:00,
2013-03-22 14:04:00,36.7,29.0,29.39,NNW,337,3.0,4.0,72,0.00,,,0.01,Rainwise IP-100,2013-03-22 18:04:00,
2013-03-22 14:09:00,37.2,26.0,29.39,North,360,5.0,6.0,64,0.00,,,0.01,Rainwise IP-100,2013-03-22 18:09:00,
2013-03-22 14:14:00,36.7,28.0,29.39,North,360,0.0,6.0,67,0.00,,,0.01,Rainwise IP-100,2013-03-22 18:14:00,
2013-03-22 14:19:00,36.2,26.0,29.39,NNW,337,3.0,5.0,69,0.00,,,0.01,Rainwise IP-100,2013-03-22 18:19:00,
2013-03-22 14:24:00,35.4,26.0,29.39,East,90,1.0,5.0,72,0.00,,,0.01,Rainwise IP-100,2013-03-22 18:24:00,
2013-03-22 14:29:00,35.2,31.0,29.39,ENE,67,1.0,6.0,86,0.00,,,0.01,Rainwise IP-100,2013-03-22 18:29:00,
2013-03-22 14:35:00,35.2,31.0,29.39,ESE,112,2.0,6.0,87,0.06,,,0.02,Rainwise IP-100,2013-03-22 18:35:00,
2013-03-22 14:40:00,35.8,32.0,29.39,SSE,157,0.0,4.0,86,0.06,,,0.02,Rainwise IP-100,2013-03-22 18:40:00,
2013-03-22 14:45:00,35.4,31.0,29.39,WNW,292,4.0,5.0,84,0.00,,,0.02,Rainwise IP-100,2013-03-22 18:45:00,
2013-03-22 14:50:00,34.4,31.0,29.39,South,180,0.0,6.0,85,0.00,,,0.02,Rainwise IP-100,2013-03-22 18:50:00,
2013-03-22 14:55:00,34.4,31.0,29.39,WNW,292,0.0,2.0,86,0.00,,,0.02,Rainwise IP-100,2013-03-22 18:55:00,
2013-03-22 15:00:00,34.4,31.0,29.39,SSE,157,1.0,4.0,86,0.00,,,0.02,Rainwise IP-100,2013-03-22 19:00:00,
2013-03-22 15:05:00,34.3,31.0,29.39,SSE,157,2.0,3.0,87,0.00,,,0.02,Rainwise IP-100,2013-03-22 19:05:00,
2013-03-22 15:11:00,33.6,32.0,29.39,SSE,157,1.0,5.0,88,0.00,,,0.02,Rainwise IP-100,2013-03-22 19:11:00,
2013-03-22 15:16:00,33.8,32.0,29.39,SSE,157,0.0,3.0,91,0.00,,,0.02,Rainwise IP-100,2013-03-22 19:16:00,
2013-03-22 15:21:00,35.3,33.0,29.38,ENE,67,3.0,6.0,93,0.00,,,0.02,Rainwise IP-100,2013-03-22 19:21:00,
2013-03-22 15:26:00,36.5,33.0,29.38,North,360,2.0,4.0,87,0.00,,,0.02,Rainwise IP-100,2013-03-22 19:26:00,
2013-03-22 15:31:00,36.3,31.0,29.39,NNW,337,4.0,7.0,80,0.00,,,0.02,Rainwise IP-100,2013-03-22 19:31:00,
2013-03-22 15:36:00,35.3,29.0,29.39,North,360,0.0,6.0,82,0.00,,,0.02,Rainwise IP-100,2013-03-22 19:36:00,
2013-03-22 15:42:00,34.9,31.0,29.39,North,360,0.0,2.0,83,0.00,,,0.02,Rainwise IP-100,2013-03-22 19:42:00,
2013-03-22 15:47:00,34.7,29.0,29.39,NW,315,3.0,4.0,81,0.00,,,0.02,Rainwise IP-100,2013-03-22 19:47:00,
2013-03-22 15:52:00,34.7,29.0,29.39,NNW,337,4.0,4.0,82,0.00,,,0.02,Rainwise IP-100,2013-03-22 19:52:00,
2013-03-22 15:57:00,34.6,31.0,29.39,WNW,292,3.0,4.0,84,0.00,,,0.02,Rainwise IP-100,2013-03-22 19:57:00,
2013-03-22 16:02:00,34.6,31.0,29.39,NW,315,1.0,6.0,87,0.00,,,0.02,Rainwise IP-100,2013-03-22 20:02:00,
2013-03-22 16:07:00,34.1,31.0,29.39,NW,315,4.0,7.0,84,0.00,,,0.02,Rainwise IP-100,2013-03-22 20:07:00,
2013-03-22 16:12:00,34.2,31.0,29.39,North,360,4.0,6.0,84,0.00,,,0.02,Rainwise IP-100,2013-03-22 20:12:00,
2013-03-22 16:18:00,34.6,31.0,29.40,NNW,337,0.0,4.0,84,0.00,,,0.02,Rainwise IP-100,2013-03-22 20:18:00,
2013-03-22 16:23:00,34.9,31.0,29.40,NW,315,4.0,4.0,83,0.00,,,0.02,Rainwise IP-100,2013-03-22 20:23:00,
2013-03-22 16:28:00,34.3,29.0,29.40,NNW,337,2.0,6.0,82,0.00,,,0.02,Rainwise IP-100,2013-03-22 20:28:00,
2013-03-22 16:33:00,34.7,31.0,29.40,West,270,2.0,4.0,86,0.00,,,0.02,Rainwise IP-100,2013-03-22 20:33:00,
2013-03-22 16:38:00,34.6,31.0,29.40,NW,315,5.0,6.0,84,0.00,,,0.02,Rainwise IP-100,2013-03-22 20:38:00,
2013-03-22 16:43:00,33.7,31.0,29.40,NNW,337,6.0,8.0,84,0.00,,,0.02,Rainwise IP-100,2013-03-22 20:43:00,
2013-03-22 16:48:00,32.7,31.0,29.40,NNW,337,6.0,10.0,87,0.00,,,0.02,Rainwise IP-100,2013-03-22 20:48:00,
2013-03-22 16:53:00,32.8,31.0,29.40,NNW,337,6.0,8.0,87,0.00,,,0.02,Rainwise IP-100,2013-03-22 20:53:00,
2013-03-22 16:58:00,32.8,31.0,29.40,NW,315,4.0,7.0,87,0.00,,,0.02,Rainwise IP-100,2013-03-22 20:58:00,
2013-03-22 17:04:00,33.1,31.0,29.40,North,360,6.0,6.0,87,0.00,,,0.02,Rainwise IP-100,2013-03-22 21:04:00,
2013-03-22 17:09:00,33.5,31.0,29.40,NNW,337,5.0,6.0,86,0.00,,,0.02,Rainwise IP-100,2013-03-22 21:09:00,
2013-03-22 17:14:00,33.2,29.0,29.40,NW,315,5.0,6.0,85,0.00,,,0.02,Rainwise IP-100,2013-03-22 21:14:00,
2013-03-22 17:19:00,33.2,29.0,29.40,North,360,2.0,6.0,86,0.00,,,0.02,Rainwise IP-100,2013-03-22 21:19:00,
2013-03-22 17:24:00,33.5,31.0,29.40,North,360,0.0,6.0,84,0.00,,,0.02,Rainwise IP-100,2013-03-22 21:24:00,
2013-03-22 17:29:00,33.9,29.0,29.40,North,360,4.0,6.0,80,0.00,,,0.02,Rainwise IP-100,2013-03-22 21:29:00,
2013-03-22 17:34:00,34.1,29.0,29.40,NNW,337,2.0,5.0,80,0.00,,,0.02,Rainwise IP-100,2013-03-22 21:34:00,
2013-03-22 17:39:00,34.1,29.0,29.40,NNW,337,2.0,3.0,79,0.00,,,0.02,Rainwise IP-100,2013-03-22 21:39:00,
2013-03-22 17:45:00,34.3,28.0,29.41,SSE,157,2.0,5.0,77,0.00,,,0.02,Rainwise IP-100,2013-03-22 21:45:00,
2013-03-22 17:50:00,34.6,28.0,29.41,SE,135,0.0,5.0,74,0.00,,,0.02,Rainwise IP-100,2013-03-22 21:50:00,
2013-03-22 17:56:00,34.6,29.0,29.41,South,180,0.0,1.0,79,0.00,,,0.02,Rainwise IP-100,2013-03-22 21:56:00,
2013-03-22 18:01:00,34.7,28.0,29.41,WNW,292,1.0,3.0,74,0.00,,,0.02,Rainwise IP-100,2013-03-22 22:01:00,
2013-03-22 18:06:00,34.7,28.0,29.41,WNW,292,0.0,2.0,76,0.00,,,0.02,Rainwise IP-100,2013-03-22 22:06:00,
2013-03-22 18:11:00,34.3,26.0,29.41,ENE,67,6.0,6.0,71,0.00,,,0.02,Rainwise IP-100,2013-03-22 22:11:00,
2013-03-22 18:16:00,33.9,24.0,29.41,South,180,2.0,8.0,66,0.00,,,0.02,Rainwise IP-100,2013-03-22 22:16:00,
2013-03-22 18:21:00,33.5,24.0,29.42,SW,225,0.0,10.0,66,0.00,,,0.02,Rainwise IP-100,2013-03-22 22:21:00,
2013-03-22 18:27:00,33.2,23.0,29.42,SSE,157,0.0,6.0,65,0.00,,,0.02,Rainwise IP-100,2013-03-22 22:27:00,
2013-03-22 18:32:00,32.9,23.0,29.43,North,360,0.0,6.0,65,0.00,,,0.02,Rainwise IP-100,2013-03-22 22:32:00,
2013-03-22 18:37:00,32.7,24.0,29.43,WSW,247,0.0,6.0,66,0.00,,,0.02,Rainwise IP-100,2013-03-22 22:37:00,
2013-03-22 18:42:00,32.5,24.0,29.43,WSW,247,1.0,4.0,67,0.00,,,0.02,Rainwise IP-100,2013-03-22 22:42:00,
2013-03-22 18:47:00,32.3,23.0,29.43,ESE,112,0.0,7.0,67,0.00,,,0.02,Rainwise IP-100,2013-03-22 22:47:00,
2013-03-22 18:52:00,32.1,23.0,29.43,ENE,67,4.0,6.0,66,0.00,,,0.02,Rainwise IP-100,2013-03-22 22:52:00,
2013-03-22 18:57:00,31.9,23.0,29.43,WSW,247,0.0,6.0,68,0.00,,,0.02,Rainwise IP-100,2013-03-22 22:57:00,
2013-03-22 19:02:00,31.7,24.0,29.44,SE,135,0.0,3.0,70,0.00,,,0.02,Rainwise IP-100,2013-03-22 23:02:00,
2013-03-22 19:07:00,31.5,23.0,29.44,WSW,247,2.0,5.0,68,0.00,,,0.02,Rainwise IP-100,2013-03-22 23:07:00,
2013-03-22 19:13:00,31.3,23.0,29.44,WSW,247,5.0,6.0,70,0.00,,,0.02,Rainwise IP-100,2013-03-22 23:13:00,
2013-03-22 19:18:00,31.0,23.0,29.44,WNW,292,2.0,7.0,70,0.00,,,0.02,Rainwise IP-100,2013-03-22 23:18:00,
2013-03-22 19:23:00,30.9,23.0,29.45,WSW,247,3.0,6.0,72,0.00,,,0.02,Rainwise IP-100,2013-03-22 23:23:00,
2013-03-22 19:28:00,30.8,23.0,29.45,WSW,247,0.0,6.0,72,0.00,,,0.02,Rainwise IP-100,2013-03-22 23:28:00,
2013-03-22 19:33:00,30.6,23.0,29.45,WSW,247,0.0,6.0,73,0.00,,,0.02,Rainwise IP-100,2013-03-22 23:33:00,
2013-03-22 19:38:00,30.6,23.0,29.45,WSW,247,2.0,4.0,73,0.00,,,0.02,Rainwise IP-100,2013-03-22 23:38:00,
2013-03-22 19:43:00,30.7,23.0,29.45,NNE,22,1.0,4.0,72,0.00,,,0.02,Rainwise IP-100,2013-03-22 23:43:00,
2013-03-22 19:48:00,30.6,23.0,29.45,WSW,247,1.0,10.0,72,0.06,,,0.03,Rainwise IP-100,2013-03-22 23:48:00,
2013-03-22 19:54:00,30.4,23.0,29.46,South,180,1.0,8.0,71,0.06,,,0.03,Rainwise IP-100,2013-03-22 23:54:00,
2013-03-22 19:59:00,30.2,23.0,29.46,ENE,67,0.0,6.0,72,0.00,,,0.03,Rainwise IP-100,2013-03-22 23:59:00,
2013-03-22 20:04:00,30.0,23.0,29.46,WNW,292,2.0,6.0,72,0.00,,,0.03,Rainwise IP-100,2013-03-23 00:04:00,
2013-03-22 20:09:00,29.9,23.0,29.46,WSW,247,1.0,6.0,72,0.00,,,0.03,Rainwise IP-100,2013-03-23 00:09:00,
2013-03-22 20:14:00,29.8,23.0,29.47,SW,225,0.0,8.0,72,0.00,,,0.03,Rainwise IP-100,2013-03-23 00:14:00,
2013-03-22 20:19:00,29.8,23.0,29.46,SW,225,3.0,5.0,72,0.00,,,0.03,Rainwise IP-100,2013-03-23 00:19:00,
2013-03-22 20:24:00,29.6,23.0,29.47,SSW,202,0.0,5.0,72,0.00,,,0.03,Rainwise IP-100,2013-03-23 00:24:00,
2013-03-22 20:29:00,29.5,23.0,29.47,West,270,2.0,5.0,70,0.00,,,0.03,Rainwise IP-100,2013-03-23 00:29:00,
2013-03-22 20:36:00,29.2,21.0,29.47,WSW,247,3.0,4.0,71,0.00,,,0.03,Rainwise IP-100,2013-03-23 00:36:00,
2013-03-22 20:41:00,29.2,21.0,29.47,WSW,247,1.0,6.0,71,0.00,,,0.03,Rainwise IP-100,2013-03-23 00:41:00,
2013-03-22 20:46:00,29.1,21.0,29.47,WSW,247,0.0,6.0,71,0.00,,,0.03,Rainwise IP-100,2013-03-23 00:46:00,
2013-03-22 20:51:00,29.1,21.0,29.47,WSW,247,0.0,7.0,70,0.00,,,0.03,Rainwise IP-100,2013-03-23 00:51:00,
2013-03-22 20:56:00,29.0,21.0,29.47,SW,225,0.0,6.0,70,0.00,,,0.03,Rainwise IP-100,2013-03-23 00:56:00,
2013-03-22 21:01:00,28.9,21.0,29.47,SW,225,1.0,4.0,70,0.00,,,0.03,Rainwise IP-100,2013-03-23 01:01:00,
2013-03-22 21:07:00,28.8,21.0,29.47,West,270,1.0,5.0,71,0.00,,,0.03,Rainwise IP-100,2013-03-23 01:07:00,
2013-03-22 21:12:00,28.7,23.0,29.47,WSW,247,0.0,9.0,72,0.00,,,0.03,Rainwise IP-100,2013-03-23 01:12:00,
2013-03-22 21:17:00,28.8,21.0,29.47,ENE,67,1.0,7.0,70,0.00,,,0.03,Rainwise IP-100,2013-03-23 01:17:00,
2013-03-22 21:22:00,28.8,21.0,29.47,ENE,67,3.0,7.0,71,0.00,,,0.03,Rainwise IP-100,2013-03-23 01:22:00,
2013-03-22 21:27:00,28.8,21.0,29.48,SW,225,1.0,10.0,71,0.00,,,0.03,Rainwise IP-100,2013-03-23 01:27:00,
2013-03-22 21:32:00,28.8,21.0,29.47,ENE,67,0.0,6.0,71,0.00,,,0.03,Rainwise IP-100,2013-03-23 01:32:00,
2013-03-22 21:37:00,28.6,21.0,29.48,West,270,3.0,4.0,71,0.00,,,0.03,Rainwise IP-100,2013-03-23 01:37:00,
2013-03-22 21:42:00,28.6,23.0,29.48,NW,315,2.0,5.0,73,0.00,,,0.03,Rainwise IP-100,2013-03-23 01:42:00,
2013-03-22 21:48:00,28.5,23.0,29.48,SW,225,2.0,4.0,72,0.00,,,0.03,Rainwise IP-100,2013-03-23 01:48:00,
2013-03-22 21:53:00,28.4,21.0,29.48,WSW,247,0.0,5.0,72,0.00,,,0.03,Rainwise IP-100,2013-03-23 01:53:00,
2013-03-22 21:58:00,28.4,21.0,29.48,WSW,247,3.0,6.0,73,0.00,,,0.03,Rainwise IP-100,2013-03-23 01:58:00,
2013-03-22 22:03:00,28.3,21.0,29.48,SE,135,0.0,3.0,73,0.00,,,0.03,Rainwise IP-100,2013-03-23 02:03:00,
2013-03-22 22:08:00,28.2,21.0,29.48,SW,225,1.0,5.0,73,0.00,,,0.03,Rainwise IP-100,2013-03-23 02:08:00,
2013-03-22 22:13:00,27.9,21.0,29.47,West,270,5.0,5.0,75,0.00,,,0.03,Rainwise IP-100,2013-03-23 02:13:00,
2013-03-22 22:18:00,27.9,21.0,29.48,SW,225,0.0,6.0,75,0.00,,,0.03,Rainwise IP-100,2013-03-23 02:18:00,
2013-03-22 22:24:00,27.9,21.0,29.48,SSW,202,4.0,5.0,75,0.00,,,0.03,Rainwise IP-100,2013-03-23 02:24:00,
2013-03-22 22:29:00,27.8,21.0,29.47,WSW,247,0.0,5.0,76,0.00,,,0.03,Rainwise IP-100,2013-03-23 02:29:00,
2013-03-22 22:34:00,27.8,21.0,29.47,SW,225,2.0,5.0,76,0.00,,,0.03,Rainwise IP-100,2013-03-23 02:34:00,
2013-03-22 22:39:00,27.7,23.0,29.47,SW,225,0.0,4.0,77,0.00,,,0.03,Rainwise IP-100,2013-03-23 02:39:00,
2013-03-22 22:44:00,27.7,23.0,29.47,SW,225,0.0,3.0,77,0.00,,,0.03,Rainwise IP-100,2013-03-23 02:44:00,
2013-03-22 22:49:00,27.7,23.0,29.47,West,270,1.0,4.0,77,0.00,,,0.03,Rainwise IP-100,2013-03-23 02:49:00,
2013-03-22 22:54:00,27.9,23.0,29.47,West,270,0.0,2.0,77,0.00,,,0.03,Rainwise IP-100,2013-03-23 02:54:00,
2013-03-22 22:59:00,27.8,23.0,29.47,SE,135,0.0,5.0,78,0.00,,,0.03,Rainwise IP-100,2013-03-23 02:59:00,
2013-03-22 23:05:00,27.6,23.0,29.47,East,90,1.0,3.0,78,0.00,,,0.03,Rainwise IP-100,2013-03-23 03:05:00,
2013-03-22 23:10:00,27.5,23.0,29.47,East,90,2.0,4.0,78,0.00,,,0.03,Rainwise IP-100,2013-03-23 03:10:00,
2013-03-22 23:15:00,27.1,23.0,29.47,East,90,0.0,3.0,80,0.00,,,0.03,Rainwise IP-100,2013-03-23 03:15:00,
2013-03-22 23:20:00,26.9,23.0,29.47,East,90,1.0,3.0,80,0.00,,,0.03,Rainwise IP-100,2013-03-23 03:20:00,
2013-03-22 23:25:00,26.7,23.0,29.46,East,90,1.0,3.0,80,0.00,,,0.03,Rainwise IP-100,2013-03-23 03:25:00,
2013-03-22 23:30:00,26.5,23.0,29.47,East,90,1.0,4.0,83,0.00,,,0.03,Rainwise IP-100,2013-03-23 03:30:00,
2013-03-22 23:35:00,25.8,23.0,29.48,East,90,1.0,2.0,84,0.00,,,0.03,Rainwise IP-100,2013-03-23 03:35:00,
2013-03-22 23:41:00,25.4,23.0,29.48,East,90,1.0,3.0,86,0.00,,,0.03,Rainwise IP-100,2013-03-23 03:41:00,
2013-03-22 23:46:00,25.4,23.0,29.48,ENE,67,2.0,5.0,85,0.00,,,0.03,Rainwise IP-100,2013-03-23 03:46:00,
2013-03-22 23:51:00,25.6,23.0,29.47,ENE,67,2.0,3.0,84,0.00,,,0.03,Rainwise IP-100,2013-03-23 03:51:00,
2013-03-22 23:56:00,25.5,23.0,29.47,ENE,67,2.0,3.0,83,0.00,,,0.03,Rainwise IP-100,2013-03-23 03:56:00,